This demonstration page uses our WeatherBlox Daily Observations layout. Learn more.

Left ArrowRight Arrow

31.31129, -92.44514

Hourly Observations for August 21, 2018

Temp ( °F °C ) Dew Point ( °F °C ) Humidity (%) Winds ( mph kmh ) Pressure ( in mb ) Visibility ( mi km ) Precip ( " mm )
12:20 am 00:20 Partly Cloudy with Nearby Thunderstorms 81 27.2 75 23.9 82 82 NE 6 9 30.00 1016 10 16 0.00 0.00
12:34 am 00:34 Mostly Cloudy with Thunderstorms 82 27.8 76 24.4 82 82 NNE 10 17 30.00 1016 10 16 0.00 0.00
1:53 am 01:53 Cloudy 82 27.8 76 24.4 82 82 VRB 5 7 30.01 1016 10 16 0.00 0.00
2:53 am 02:53 Cloudy 82 27.8 76 24.4 82 82 S 6 9 30.01 1016 10 16 0.00 0.00
3:17 am 03:17 Cloudy 81 27.2 76 24.4 85 85 S 7 11 30.00 1016 10 16 0.00 0.00
3:53 am 03:53 Mostly Cloudy 80 26.7 76 24.4 87 87 SSW 5 7 30.01 1016 10 16 0.00 0.00
4:05 am 04:05 Cloudy 80 26.7 76 24.4 87 87 SSW 5 7 30.00 1016 9 14 0.00 0.00
4:53 am 04:53 Cloudy 80 26.7 76 24.4 87 87 SW 5 7 30.01 1016 9 14 0.00 0.00
5:53 am 05:53 Partly Cloudy 79 26.1 76 24.4 90 90 WSW 5 7 30.01 1016 9 14 0.00 0.00
6:53 am 06:53 Mostly Cloudy 80 26.7 75 23.9 85 85 WSW 6 9 30.02 1017 9 14 0.00 0.00
7:53 am 07:53 Sunny 82 27.8 76 24.4 82 82 WSW 7 11 30.03 1017 9 14 0.00 0.00
8:48 am 08:48 Mostly Cloudy 82 28 75 24 79 79 W 14 22 30.03 1017 10 16 0.00 0.00
8:53 am 08:53 Mostly Cloudy 83 28.3 75 23.9 77 77 W 12 19 30.04 1017 10 16 0.00 0.00
9:50 am 09:50 Partly Cloudy 86 30 75 24 70 70 W 12 19 30.06 1018 10 16 0.00 0.00
9:53 am 09:53 Partly Cloudy 86 30 75 23.9 70 70 W 10 17 30.06 1018 10 16 0.00 0.00
10:50 am 10:50 Mostly Cloudy 86 30 73 23 66 66 NW 9 15 30.06 1018 9 14 0.00 0.00
10:53 am 10:53 Mostly Cloudy 86 30 74 23.3 67 67 NNW 9 15 30.07 1018 9 14 0.00 0.00
11:02 am 11:02 Mostly Cloudy 88 31.1 73 22.8 61 61 NNW 7 11 30.06 1018 9 14 0.00 0.00
11:53 am 11:53 Partly Cloudy 90 32.2 71 21.7 54 54 NNW 8 13 30.06 1018 9 14 0.00 0.00
12:53 pm 12:53 Mostly Sunny 92 33.3 69 20.6 47 47 VRB 3 6 30.06 1018 9 14 0.00 0.00
1:53 pm 13:53 Sunny 94 34.4 68 20 43 43 undefined N/A 30.04 1017 9 14 0.00 0.00
1:58 pm 13:58 Sunny 94 34.4 69 20.6 44 44 SSE 7 11 30.03 1017 9 14 0.00 0.00
2:53 pm 14:53 Mostly Sunny 96 35.6 69 20.6 41 41 SSE 7 11 30.02 1017 8 13 0.00 0.00
3:53 pm 15:53 Sunny 96 35.6 69 20.6 41 41 N 10 17 30.00 1016 8 13 0.00 0.00
4:53 pm 16:53 Sunny 96 35.6 68 20 40 40 NNW 9 15 29.99 1016 8 13 0.00 0.00
5:53 pm 17:53 Sunny 95 35 66 18.9 39 39 N 8 13 29.99 1016 8 13 0.00 0.00
6:53 pm 18:53 Sunny 93 33.9 66 18.9 41 41 N 6 9 29.99 1016 7 11 0.00 0.00
7:53 pm 19:53 Clear 86 30 69 20.6 57 57 N 3 6 30.01 1016 7 11 0.00 0.00
8:53 pm 20:53 Clear 82 27.8 68 20 63 63 N 3 6 30.02 1017 7 11 0.00 0.00
9:53 pm 21:53 Clear 79 26.1 69 20.6 72 72 Calm 30.04 1017 7 11 0.00 0.00
10:53 pm 22:53 Hazy 74 23.3 67 19.4 79 79 NNW 3 6 30.07 1018 6 10 0.00 0.00
11:53 pm 23:53 Hazy 74 23.3 68 20 82 82 NNE 5 7 30.07 1018 6 10 0.00 0.00

Powered by AerisWeather